Simultaneous Nadir Overpasses (SNOs) Predictions

Prediction of SNOs over PacNW region [( 10.00, 139.50) to ( 22.70, 165.60)] between AQUA and NPP Satellites:

Table of predicted SNOs over PacNW region for the next 30.0 days since TLE Epoch: 6/21/2019
Index Date (AQUA) Time (AQUA) AQUA Lat,Lon Date (NPP) Time (NPP) NPP Lat,Lon Distance(km) Time Diff (sec)
1 06/23/2019 15:59:19 22.61, 147.49 06/23/2019 16:01:57 23.26, 144.53 311.82 158
2 07/01/2019 15:09:52 22.62, 159.85 07/01/2019 15:11:16 23.22, 157.20 279.52 84
3 07/04/2019 03:31:42 22.66, 147.54 07/04/2019 03:28:13 25.03, 145.12 360.64 209
4 07/09/2019 15:59:17 22.60, 147.49 07/09/2019 16:02:02 23.27, 144.52 312.40 165
5 07/17/2019 15:09:48 22.60, 159.85 07/17/2019 15:11:20 23.18, 157.19 280.20 92




NCC Satellite Simultaneous Nadir Overpasses (SNOs) Prediction Service
